Location: ?????????
(41.1143°N, 22.7905°E)
Time: 08:39:56
(UTC+00:00)

COSMO-SKYMED 1 - Pass Details

Date: 17 March 2026
Orbit: 576 x 578 km, 97.9° (Epoch: 18 April)

Event Time Altitude Azimuth Distance (km) Brightness Sun altitude
Rises 17:02:30 0° 12° (NNE) 2,800 5.8 -5.5°
Reaches altitude 10° 17:04:40 10° 11° (NNE) 1,896 5.0 -5.9°
Maximum altitude 17:08:46 85° 286° (WNW) 584 2.5 -6.7°
Drops below altitude 10° 17:12:51 10° 196° (SSW) 1,880 5.2 -7.5°
Sets 17:14:59 0° 195° (SSW) 2,773 6.0 -7.9°
